Simultaneous Nadir Overpasses (SNOs) Predictions

Prediction of SNOs between AQUA and NOAA-19 Satellite Orbit:

Table of predicted SNOs for the next 14.0 days since TLE Epoch: 5/7/2022
Index Date (AQUA) Time (AQUA) Lat,Lon (AQUA) SZA (AQUA ) Date (NOAA-19) Time (NOAA-19) Lat,Lon (NOAA-19) SZA (NOAA-19 ) Distance(km) Time Diff (sec)
1 05/07/2022 17:54:41 -77.71, 74.36 118.79 05/07/2022 17:54:33 -77.75, 74.39 118.76 3.90 8
2 05/07/2022 18:44:15 78.04,-119.47 61.61 05/07/2022 18:45:21 78.10,-116.37 61.46 71.39 66
3 05/09/2022 23:28:07 77.71, 171.02 60.61 05/09/2022 23:27:29 77.73, 171.11 60.63 2.59 38
4 05/10/2022 00:17:34 -77.76, -21.55 119.34 05/10/2022 00:18:31 -77.74, -21.59 119.38 2.76 57
5 05/12/2022 05:01:31 -77.67, -92.15 120.02 05/12/2022 05:00:30 -77.68, -92.29 119.98 3.52 61
6 05/12/2022 05:50:59 77.74, 75.20 60.06 05/12/2022 05:51:27 77.73, 75.22 60.04 1.05 28
7 05/14/2022 11:24:23 -77.72, 171.96 120.52 05/14/2022 11:24:27 -77.70, 171.89 120.53 2.30 4
8 05/16/2022 16:57:47 77.69, -91.29 58.94 05/16/2022 16:57:24 77.69, -91.33 58.94 1.36 23
9 05/16/2022 17:47:14 -77.74, 76.17 121.02 05/16/2022 17:48:23 -77.75, 76.26 121.03 2.73 69
10 05/18/2022 22:31:10 -77.66, 5.50 121.60 05/18/2022 22:30:22 -77.68, 5.48 121.57 2.22 48
11 05/18/2022 23:20:38 77.74, 172.82 58.49 05/18/2022 23:21:21 77.72, 172.91 58.45 3.23 43



Historial Predications of SNOs between AQUA and NOAA-19
